Hourly Data Report for October 02, 2017

All times are specified in Local Standard Time (LST). Add 1 hour to adjust for Daylight Saving Time where and when it is observed.

RAE LAKES
NORTHWEST TERRITORIES

64°06'42.078" N
117°19'40.086" W
223.20 m
2203359
71165
WYH

Download Data

Hourly Data (October 2017)
Hourly Data Report for October 2, 2017
Temp Definition
°C
Dew Point Temp Definition
°C
Rel Hum Definition
%
Wind Dir Definition
10's deg

Wind Spd Definition
km/h
Visibility Definition
km
Stn Press Definition
kPa
Hmdx Definition


Wind Chill Definition


Weather Definition


TIME
00:00 2.1 -1.7 76 27 12   99.84     LegendNANA
01:00 2.2 -1.3 77 27 13   99.85     LegendNANA
02:00 2.2 -1.0 80 27 13   99.83     LegendNANA
03:00 2.2 -0.8 80 27 13   99.84     LegendNANA
04:00 2.6 -0.6 79 28 14   99.85     LegendNANA
05:00 2.5 -0.6 80 27 14   99.88     LegendNANA
06:00 2.4 -0.7 80 28 15   99.86     LegendNANA
07:00 2.2 -0.9 80 27 12   99.83     LegendNANA
08:00 2.1 -1.1 79 27 11   99.84     LegendNANA
09:00 3.6 -0.8 73 28 13   99.80     LegendNANA
10:00 5.1 -0.8 66 26 12   99.77     LegendNANA
11:00 7.0 -0.2 60 24 10   99.69     LegendNANA
12:00 8.4 -0.7 53 27 11   99.68     LegendNANA
13:00 9.6 -0.6 49 25 14   99.60     LegendNANA
14:00 10.2 -1.9 43 27 16   99.58     LegendNANA
15:00 10.7 -1.6 42 27 11   99.54     LegendNANA
16:00 10.1 -1.9 43 29 9   99.45     LegendNANA
17:00 9.0 0.5 55 6 9   99.41     LegendNANA
18:00 4.0 0.9 80 8 24   99.38     LegendNANA
19:00 3.1 0.8 85 9 21   99.33     LegendNANA
20:00 2.4 0.2 85 9 21   99.25     LegendNANA
21:00 2.3 -0.4 82 9 23   99.18     LegendNANA
22:00 2.2 -0.3 83 10 10   99.14     LegendNANA
23:00 2.1 -0.9 81 10 10   98.99     LegendNANA

Notes on Data Quality.

Legend

  • E = Estimated
  • M = Missing
  • NA = Not Available
  • ‡ = Partner data that is not subject to review by the National Climate Archives
Date modified: